Time,TemperatureF,DewpointF,PressureIn,WindDirection,WindDirectionDegrees,WindSpeedMPH,WindSpeedGustMPH,Humidity,HourlyPrecipIn,Conditions,Clouds,dailyrainin,SolarRadiationWatts/m^2,SoftwareType,DateUTC
2013-02-10 00:00:00,31.5,31.5,29.53,East,101,9.0,17.0,100,0.00,,,0.00,0048,Weather View 32 v70,2013-02-10 05:00:00,
2013-02-10 00:05:00,31.5,31.5,29.53,East,101,9.0,17.0,100,0.00,,,0.00,0048,Weather View 32 v70,2013-02-10 05:05:00,
2013-02-10 00:10:00,31.5,31.5,29.53,East,101,10.0,17.0,100,0.00,,,0.00,0048,Weather View 32 v70,2013-02-10 05:10:00,
2013-02-10 00:15:00,31.5,31.5,29.53,East,101,11.0,17.0,100,0.00,,,0.00,0048,Weather View 32 v70,2013-02-10 05:15:00,
2013-02-10 00:20:00,31.5,31.5,29.53,ESE,113,11.0,17.0,100,0.00,,,0.00,0048,Weather View 32 v70,2013-02-10 05:20:00,
2013-02-10 00:25:00,31.5,31.5,29.53,East,101,8.0,17.0,100,0.00,,,0.00,0048,Weather View 32 v70,2013-02-10 05:25:00,
2013-02-10 00:30:00,31.5,31.5,29.53,ESE,107,12.0,16.0,100,0.00,,,0.00,0048,Weather View 32 v70,2013-02-10 05:30:00,
2013-02-10 00:35:00,31.5,31.5,29.53,ESE,107,6.0,16.0,100,0.00,,,0.00,0048,Weather View 32 v70,2013-02-10 05:35:00,
2013-02-10 00:40:00,31.5,31.5,29.53,ESE,107,9.0,16.0,100,0.00,,,0.00,0048,Weather View 32 v70,2013-02-10 05:40:00,
2013-02-10 00:45:00,31.5,31.5,29.53,East,101,9.0,16.0,100,0.00,,,0.00,0048,Weather View 32 v70,2013-02-10 05:45:00,
2013-02-10 00:50:00,31.5,31.5,29.53,ESE,107,11.0,16.0,100,0.00,,,0.00,0048,Weather View 32 v70,2013-02-10 05:50:00,
2013-02-10 00:55:00,31.5,31.5,29.53,East,101,7.0,16.0,100,0.00,,,0.00,0048,Weather View 32 v70,2013-02-10 05:55:00,
2013-02-10 01:00:00,31.5,31.5,29.53,East,101,9.0,16.0,100,0.00,,,0.00,0048,Weather View 32 v70,2013-02-10 06:00:00,
2013-02-10 01:05:00,31.5,31.5,29.53,East,101,7.0,16.0,100,0.00,,,0.00,0048,Weather View 32 v70,2013-02-10 06:05:00,
2013-02-10 01:10:00,31.5,31.5,29.53,East,101,12.0,16.0,100,0.00,,,0.00,0048,Weather View 32 v70,2013-02-10 06:10:00,
2013-02-10 01:15:00,31.5,31.5,29.53,East,101,11.0,16.0,100,0.00,,,0.00,0048,Weather View 32 v70,2013-02-10 06:15:00,
2013-02-10 01:20:00,31.5,31.5,29.53,East,101,8.0,16.0,100,0.00,,,0.00,0048,Weather View 32 v70,2013-02-10 06:20:00,
2013-02-10 01:25:00,31.5,31.5,29.53,East,101,7.0,16.0,100,0.00,,,0.00,0048,Weather View 32 v70,2013-02-10 06:25:00,
2013-02-10 01:30:00,31.5,31.5,29.53,East,101,7.0,16.0,100,0.00,,,0.00,0048,Weather View 32 v70,2013-02-10 06:30:00,
2013-02-10 01:35:00,31.5,31.5,29.53,East,101,6.0,16.0,100,0.00,,,0.00,0048,Weather View 32 v70,2013-02-10 06:35:00,
2013-02-10 01:40:00,31.5,31.5,29.53,East,101,6.0,16.0,100,0.00,,,0.00,0048,Weather View 32 v70,2013-02-10 06:40:00,
2013-02-10 01:45:00,31.5,31.5,29.53,East,101,8.0,16.0,100,0.00,,,0.00,0048,Weather View 32 v70,2013-02-10 06:45:00,
2013-02-10 01:50:00,31.5,31.5,29.53,East,101,9.0,15.0,100,0.00,,,0.00,0048,Weather View 32 v70,2013-02-10 06:50:00,
2013-02-10 01:55:00,31.5,31.5,29.53,East,101,8.0,15.0,100,0.00,,,0.00,0048,Weather View 32 v70,2013-02-10 06:55:00,
2013-02-10 02:00:00,31.5,31.5,29.53,East,101,6.0,15.0,100,0.00,,,0.00,0048,Weather View 32 v70,2013-02-10 07:00:00,
2013-02-10 02:05:00,31.5,31.5,29.53,East,101,4.0,14.0,100,0.00,,,0.00,0048,Weather View 32 v70,2013-02-10 07:05:00,
2013-02-10 02:10:00,31.5,31.5,29.53,East,96,9.0,14.0,100,0.00,,,0.00,0048,Weather View 32 v70,2013-02-10 07:10:00,
2013-02-10 02:15:00,31.5,31.5,29.53,East,101,6.0,13.0,100,0.00,,,0.00,0048,Weather View 32 v70,2013-02-10 07:15:00,
2013-02-10 02:20:00,31.5,31.5,29.53,East,101,2.0,13.0,100,0.00,,,0.00,0048,Weather View 32 v70,2013-02-10 07:20:00,
2013-02-10 02:25:00,31.5,31.5,29.53,East,96,6.0,13.0,100,0.00,,,0.00,0048,Weather View 32 v70,2013-02-10 07:25:00,
2013-02-10 02:30:00,31.5,31.5,29.53,East,101,7.0,13.0,100,0.00,,,0.00,0048,Weather View 32 v70,2013-02-10 07:30:00,
2013-02-10 02:35:00,31.5,31.5,29.53,East,101,6.0,13.0,100,0.00,,,0.00,0048,Weather View 32 v70,2013-02-10 07:35:00,
2013-02-10 02:40:00,31.5,31.5,29.53,East,101,5.0,13.0,100,0.00,,,0.00,0048,Weather View 32 v70,2013-02-10 07:40:00,
2013-02-10 02:45:00,31.5,31.5,29.53,East,101,8.0,13.0,100,0.00,,,0.00,0048,Weather View 32 v70,2013-02-10 07:45:00,
2013-02-10 02:50:00,31.5,31.5,29.53,East,101,4.0,13.0,100,0.00,,,0.00,0048,Weather View 32 v70,2013-02-10 07:50:00,
2013-02-10 02:55:00,31.5,31.5,29.53,East,101,9.0,13.0,100,0.00,,,0.00,0048,Weather View 32 v70,2013-02-10 07:55:00,
2013-02-10 03:01:00,31.5,31.5,29.53,East,101,8.0,14.0,100,0.00,,,0.00,0048,Weather View 32 v70,2013-02-10 08:01:00,
2013-02-10 03:06:00,31.5,31.5,29.53,East,101,11.0,14.0,100,0.00,,,0.00,0048,Weather View 32 v70,2013-02-10 08:06:00,
2013-02-10 03:11:00,31.5,31.5,29.53,ESE,107,8.0,15.0,100,0.00,,,0.00,0048,Weather View 32 v70,2013-02-10 08:11:00,
2013-02-10 03:16:00,31.5,31.5,29.53,East,101,2.0,15.0,100,0.00,,,0.00,0048,Weather View 32 v70,2013-02-10 08:16:00,
2013-02-10 03:21:00,31.5,31.5,29.53,East,101,4.0,15.0,100,0.00,,,0.00,0048,Weather View 32 v70,2013-02-10 08:21:00,
2013-02-10 03:26:00,31.5,31.5,29.53,East,101,3.0,15.0,100,0.00,,,0.00,0048,Weather View 32 v70,2013-02-10 08:26:00,
2013-02-10 03:35:00,31.5,31.5,29.53,ESE,107,6.0,15.0,100,0.00,,,0.00,0048,Weather View 32 v70,2013-02-10 08:35:00,
2013-02-10 03:40:00,31.5,31.5,29.53,ESE,107,6.0,15.0,100,0.00,,,0.00,0048,Weather View 32 v70,2013-02-10 08:40:00,